�������l�o���
Date,Time,MP-1(��Sv/h),MP-2(��Sv/h),MP-3(��Sv/h),MP-4(��Sv/h),MP-5(��Sv/h),MP-6(��Sv/h),MP-7(��Sv/h),MP-8(��Sv/h),����,����(m/s),���J
2021/04/16,00:00,0.623,0.921,0.583,1.129,0.808,0.367,0.648,0.608,��쐼,6.9,��
2021/04/16,00:10,0.623,0.921,0.584,1.132,0.809,0.368,0.646,0.608,��쐼,7.2,��
2021/04/16,00:20,0.624,0.921,0.581,1.129,0.810,0.368,0.647,0.606,��쐼,6.2,��
2021/04/16,00:30,0.623,0.917,0.582,1.132,0.810,0.369,0.646,0.606,��쐼,6.4,��
2021/04/16,00:40,0.622,0.920,0.582,1.129,0.811,0.367,0.648,0.606,��쐼,6.5,��
2021/04/16,00:50,0.623,0.918,0.583,1.127,0.808,0.368,0.647,0.607,��쐼,6.8,��
2021/04/16,01:00,0.622,0.921,0.582,1.130,0.808,0.368,0.647,0.607,��쐼,6.6,��
2021/04/16,01:10,0.623,0.920,0.582,1.130,0.808,0.367,0.648,0.608,��쐼,6.7,��
2021/04/16,01:20,0.622,0.920,0.582,1.130,0.809,0.368,0.648,0.607,��쐼,6.5,��
2021/04/16,01:30,0.623,0.919,0.583,1.127,0.809,0.368,0.648,0.608,��쐼,6.9,��
2021/04/16,01:40,0.623,0.917,0.581,1.128,0.809,0.369,0.648,0.607,��쐼,6.9,��
2021/04/16,01:50,0.622,0.918,0.582,1.128,0.809,0.368,0.647,0.606,��쐼,6.7,��
2021/04/16,02:00,0.623,0.921,0.582,1.129,0.809,0.369,0.648,0.607,��쐼,6.3,��
2021/04/16,02:10,0.623,0.918,0.582,1.128,0.807,0.368,0.647,0.608,��,6.4,��
2021/04/16,02:20,0.623,0.919,0.581,1.130,0.808,0.367,0.647,0.607,��쐼,5.8,��
2021/04/16,02:30,0.624,0.919,0.581,1.129,0.808,0.369,0.647,0.605,��쐼,5.4,��
2021/04/16,02:40,0.622,0.919,0.582,1.129,0.808,0.367,0.650,0.608,��쐼,5.3,��
2021/04/16,02:50,0.623,0.919,0.583,1.131,0.808,0.368,0.648,0.608,��쐼,5.1,��
2021/04/16,03:00,0.622,0.920,0.582,1.128,0.808,0.368,0.648,0.608,��쐼,5.0,��
2021/04/16,03:10,0.624,0.919,0.583,1.125,0.808,0.368,0.646,0.607,��쐼,5.0,��
2021/04/16,03:20,0.623,0.917,0.582,1.129,0.808,0.368,0.647,0.608,��,5.2,��
2021/04/16,03:30,0.624,0.918,0.582,1.128,0.807,0.368,0.647,0.607,��쐼,4.3,��
2021/04/16,03:40,0.622,0.920,0.582,1.129,0.809,0.368,0.646,0.608,��쐼,4.8,��
2021/04/16,03:50,0.622,0.919,0.581,1.126,0.809,0.368,0.648,0.609,��쐼,5.2,��
2021/04/16,04:00,0.621,0.919,0.581,1.129,0.809,0.369,0.648,0.608,��,5.3,��
2021/04/16,04:10,0.624,0.920,0.582,1.129,0.808,0.369,0.648,0.607,��쐼,4.7,��
2021/04/16,04:20,0.621,0.919,0.583,1.129,0.808,0.368,0.648,0.608,��쐼,4.6,��
2021/04/16,04:30,0.622,0.919,0.583,1.128,0.809,0.367,0.649,0.608,��쐼,4.9,��
2021/04/16,04:40,0.622,0.920,0.581,1.130,0.808,0.367,0.647,0.606,��쐼,4.9,��
2021/04/16,04:50,0.622,0.917,0.581,1.130,0.808,0.370,0.645,0.608,��,5.3,��
2021/04/16,05:00,0.622,0.918,0.583,1.130,0.806,0.367,0.647,0.607,��,5.2,��
2021/04/16,05:10,0.625,0.919,0.583,1.129,0.809,0.367,0.648,0.607,��,5.1,��
2021/04/16,05:20,0.624,0.917,0.582,1.130,0.808,0.368,0.647,0.607,��,5.2,��
2021/04/16,05:30,0.623,0.917,0.582,1.131,0.809,0.369,0.647,0.608,��,5.5,��
2021/04/16,05:40,0.619,0.920,0.582,1.129,0.805,0.368,0.647,0.607,��,5.2,��
2021/04/16,05:50,0.621,0.919,0.582,1.130,0.808,0.367,0.648,0.607,��,5.2,��
2021/04/16,06:00,0.623,0.919,0.582,1.128,0.809,0.368,0.648,0.609,��,4.6,��
2021/04/16,06:10,0.621,0.919,0.583,1.130,0.807,0.369,0.647,0.607,��,5.0,��
2021/04/16,06:20,0.623,0.918,0.583,1.128,0.809,0.369,0.649,0.608,��,4.8,��
2021/04/16,06:30,0.623,0.919,0.583,1.130,0.809,0.368,0.647,0.609,��,4.9,��
2021/04/16,06:40,0.622,0.920,0.582,1.130,0.808,0.368,0.646,0.608,��,5.0,��
2021/04/16,06:50,0.622,0.920,0.583,1.130,0.808,0.369,0.648,0.608,��,5.1,��
2021/04/16,07:00,0.625,0.920,0.582,1.130,0.806,0.369,0.648,0.609,��,5.7,��
2021/04/16,07:10,0.622,0.923,0.584,1.128,0.809,0.370,0.648,0.607,��,5.6,��
2021/04/16,07:20,0.622,0.922,0.584,1.127,0.809,0.370,0.647,0.607,��,5.9,��
2021/04/16,07:30,0.624,0.920,0.582,1.132,0.809,0.368,0.648,0.609,��,5.7,��
2021/04/16,07:40,0.623,0.922,0.583,1.129,0.807,0.370,0.649,0.609,��,5.2,��
2021/04/16,07:50,0.626,0.921,0.584,1.128,0.808,0.369,0.651,0.608,��,4.9,��
2021/04/16,08:00,0.625,0.921,0.585,1.129,0.810,0.369,0.649,0.610,��,4.8,��
2021/04/16,08:10,0.624,0.924,0.584,1.131,0.808,0.368,0.649,0.609,��쓌,5.2,��
2021/04/16,08:20,0.624,0.919,0.584,1.128,0.810,0.367,0.649,0.609,��,5.8,��
2021/04/16,08:30,0.627,0.919,0.584,1.129,0.808,0.367,0.648,0.608,��,7.3,��
2021/04/16,08:40,0.625,0.917,0.583,1.131,0.811,0.368,0.647,0.609,��쓌,8.1,��
2021/04/16,08:50,0.625,0.916,0.583,1.131,0.810,0.368,0.647,0.608,��쓌,9.3,��
2021/04/16,09:00,0.627,0.918,0.583,1.129,0.811,0.367,0.647,0.604,��쓌,8.4,��
2021/04/16,09:10,0.626,0.919,0.582,1.133,0.811,0.368,0.648,0.605,��쓌,8.7,��
2021/04/16,09:20,0.624,0.919,0.582,1.132,0.811,0.369,0.648,0.607,��쓌,9.1,��
2021/04/16,09:30,0.624,0.916,0.582,1.133,0.809,0.368,0.646,0.607,��쓌,7.9,��
2021/04/16,09:40,0.623,0.918,0.581,1.132,0.808,0.369,0.647,0.605,��쓌,8.5,��
2021/04/16,09:50,0.624,0.917,0.582,1.133,0.808,0.368,0.646,0.606,��쓌,9.9,��
2021/04/16,10:00,0.624,0.918,0.579,1.132,0.810,0.368,0.648,0.608,��쓌,8.8,��
2021/04/16,10:10,0.623,0.921,0.581,1.132,0.807,0.367,0.650,0.606,��쓌,9.0,��
2021/04/16,10:20,0.622,0.917,0.584,1.132,0.808,0.368,0.646,0.606,��,8.1,��
2021/04/16,10:30,0.624,0.919,0.583,1.130,0.812,0.368,0.646,0.607,��,8.2,��
2021/04/16,10:40,0.624,0.920,0.582,1.134,0.811,0.369,0.647,0.607,��쓌,10.8,��
2021/04/16,10:50,0.624,0.919,0.582,1.134,0.811,0.369,0.648,0.604,��쓌,9.3,��
2021/04/16,11:00,0.624,0.923,0.584,1.133,0.812,0.368,0.648,0.607,��쓌,10.7,��
2021/04/16,11:10,0.625,0.920,0.584,1.134,0.812,0.370,0.648,0.607,��쓌,10.7,��
2021/04/16,11:20,0.625,0.922,0.583,1.134,0.811,0.370,0.648,0.606,��쓌,10.2,��
2021/04/16,11:30,0.626,0.923,0.583,1.135,0.812,0.369,0.647,0.607,��쓌,8.7,��
2021/04/16,11:40,0.625,0.923,0.582,1.133,0.811,0.369,0.646,0.606,��쓌,8.8,��
2021/04/16,11:50,0.626,0.924,0.581,1.133,0.810,0.369,0.650,0.607,��쓌,9.5,��
2021/04/16,12:00,0.624,0.923,0.582,1.133,0.809,0.369,0.648,0.606,��쓌,9.0,��
2021/04/16,12:10,0.625,0.923,0.582,1.132,0.810,0.370,0.650,0.607,��쓌,11.3,��
2021/04/16,12:20,0.624,0.923,0.583,1.132,0.813,0.370,0.650,0.607,��쓌,11.6,��
2021/04/16,12:30,0.625,0.924,0.583,1.136,0.812,0.370,0.651,0.606,��쓌,11.9,��
2021/04/16,12:40,0.626,0.922,0.584,1.135,0.813,0.371,0.650,0.606,��쓌,11.4,��
2021/04/16,12:50,0.624,0.924,0.585,1.135,0.813,0.370,0.647,0.608,��쓌,11.3,��
2021/04/16,13:00,0.626,0.923,0.584,1.136,0.812,0.370,0.648,0.608,��쓌,9.0,��
2021/04/16,13:10,0.625,0.922,0.583,1.136,0.812,0.370,0.650,0.607,��쓌,12.8,��
2021/04/16,13:20,0.624,0.921,0.582,1.136,0.811,0.370,0.651,0.608,��쓌,13.0,��
2021/04/16,13:30,0.625,0.920,0.583,1.135,0.813,0.369,0.648,0.606,��쓌,11.8,��
2021/04/16,13:40,0.626,0.921,0.586,1.134,0.812,0.370,0.649,0.607,��쓌,10.7,��
2021/04/16,13:50,0.625,0.924,0.585,1.137,0.813,0.370,0.649,0.607,��,11.4,��
2021/04/16,14:00,0.626,0.920,0.585,1.135,0.813,0.370,0.649,0.607,��쓌,13.1,��
2021/04/16,14:10,0.625,0.921,0.584,1.135,0.813,0.371,0.650,0.607,��쓌,11.4,��
2021/04/16,14:20,0.627,0.922,0.582,1.136,0.815,0.371,0.648,0.607,��쓌,12.5,��
2021/04/16,14:30,0.626,0.921,0.585,1.137,0.811,0.371,0.649,0.606,��,9.6,�L
2021/04/16,14:40,0.625,0.922,0.585,1.133,0.814,0.370,0.648,0.607,��,9.4,�L
2021/04/16,14:50,0.625,0.920,0.583,1.136,0.814,0.371,0.649,0.608,��,9.2,�L
2021/04/16,15:00,0.627,0.922,0.584,1.136,0.813,0.370,0.649,0.608,��쓌,12.5,��
2021/04/16,15:10,0.625,0.923,0.585,1.136,0.814,0.371,0.649,0.607,��,9.6,�L
2021/04/16,15:20,0.628,0.922,0.584,1.137,0.813,0.372,0.648,0.608,��쓌,9.7,��
2021/04/16,15:30,0.627,0.925,0.585,1.137,0.811,0.372,0.650,0.608,��,9.9,�L
2021/04/16,15:40,0.628,0.927,0.585,1.138,0.814,0.371,0.648,0.608,��,9.5,��
2021/04/16,15:50,0.626,0.926,0.583,1.138,0.814,0.372,0.648,0.606,��,9.1,�L
2021/04/16,16:00,0.625,0.923,0.584,1.137,0.814,0.371,0.648,0.608,��,8.6,�L
2021/04/16,16:10,0.626,0.923,0.584,1.138,0.813,0.369,0.647,0.608,��,7.9,�L
2021/04/16,16:20,0.626,0.924,0.583,1.137,0.814,0.372,0.648,0.607,��쓌,9.5,�L
2021/04/16,16:30,0.627,0.926,0.585,1.136,0.815,0.370,0.649,0.608,��쓌,10.3,�L
2021/04/16,16:40,0.627,0.924,0.584,1.139,0.814,0.371,0.648,0.607,��,10.3,�L
2021/04/16,16:50,0.626,0.927,0.584,1.137,0.815,0.373,0.649,0.608,��,10.5,�L
2021/04/16,17:00,0.628,0.926,0.586,1.135,0.815,0.371,0.648,0.608,��,7.9,��
2021/04/16,17:10,0.627,0.926,0.588,1.137,0.813,0.372,0.647,0.611,��,9.3,�L
2021/04/16,17:20,0.629,0.928,0.587,1.139,0.813,0.372,0.648,0.609,��,8.1,�L
2021/04/16,17:30,0.629,0.926,0.588,1.136,0.813,0.371,0.649,0.610,��,8.1,��
2021/04/16,17:40,0.627,0.925,0.587,1.139,0.815,0.372,0.648,0.608,��쓌,8.9,��
2021/04/16,17:50,0.629,0.927,0.587,1.138,0.814,0.373,0.649,0.610,��,9.2,��
2021/04/16,18:00,0.628,0.926,0.587,1.136,0.815,0.373,0.648,0.609,��,7.7,��
2021/04/16,18:10,0.631,0.927,0.588,1.137,0.813,0.374,0.650,0.610,��쓌,10.2,��
2021/04/16,18:20,0.629,0.926,0.586,1.138,0.814,0.372,0.649,0.610,��,8.1,��
2021/04/16,18:30,0.629,0.927,0.585,1.137,0.815,0.371,0.648,0.611,��,8.3,��
2021/04/16,18:40,0.628,0.927,0.588,1.137,0.816,0.373,0.650,0.609,��,9.0,��
2021/04/16,18:50,0.629,0.931,0.588,1.137,0.817,0.371,0.648,0.610,��,9.3,��
2021/04/16,19:00,0.630,0.928,0.586,1.137,0.816,0.371,0.650,0.611,��,9.9,��
2021/04/16,19:10,0.629,0.927,0.585,1.135,0.815,0.372,0.649,0.611,��,9.3,��
2021/04/16,19:20,0.628,0.931,0.587,1.137,0.818,0.371,0.650,0.610,��,8.9,��
2021/04/16,19:30,0.629,0.930,0.585,1.136,0.816,0.373,0.649,0.611,��,8.2,��
2021/04/16,19:40,0.628,0.930,0.586,1.137,0.817,0.372,0.649,0.610,��,9.0,��
2021/04/16,19:50,0.630,0.931,0.586,1.140,0.815,0.372,0.649,0.610,��,7.9,��
2021/04/16,20:00,0.630,0.929,0.586,1.138,0.817,0.373,0.650,0.610,��,8.9,��
2021/04/16,20:10,0.629,0.929,0.587,1.138,0.819,0.371,0.650,0.610,��,8.2,��
2021/04/16,20:20,0.629,0.932,0.587,1.138,0.819,0.372,0.650,0.612,��,9.3,��
2021/04/16,20:30,0.630,0.929,0.587,1.136,0.818,0.372,0.651,0.611,��,8.0,��
2021/04/16,20:40,0.630,0.929,0.587,1.137,0.819,0.372,0.651,0.610,��쓌,9.4,��
2021/04/16,20:50,0.628,0.932,0.586,1.136,0.815,0.370,0.649,0.611,��,7.1,��
2021/04/16,21:00,0.631,0.931,0.588,1.137,0.817,0.372,0.652,0.611,��,6.6,��
2021/04/16,21:10,0.628,0.930,0.586,1.138,0.819,0.372,0.649,0.609,��,6.9,��
2021/04/16,21:20,0.630,0.931,0.586,1.137,0.819,0.371,0.650,0.610,��,7.1,��
2021/04/16,21:30,0.630,0.932,0.587,1.137,0.817,0.371,0.651,0.610,��,7.1,��
2021/04/16,21:40,0.629,0.932,0.586,1.136,0.817,0.371,0.651,0.609,��,8.2,��
2021/04/16,21:50,0.629,0.928,0.588,1.138,0.817,0.373,0.649,0.610,��,7.6,��
2021/04/16,22:00,0.630,0.930,0.586,1.138,0.816,0.371,0.650,0.612,��쐼,7.3,��
2021/04/16,22:10,0.630,0.931,0.587,1.139,0.817,0.371,0.649,0.610,��,7.6,��
2021/04/16,22:20,0.630,0.930,0.589,1.138,0.818,0.371,0.650,0.611,��,7.0,��
2021/04/16,22:30,0.629,0.931,0.587,1.139,0.817,0.370,0.649,0.610,��,7.3,��
2021/04/16,22:40,0.629,0.931,0.585,1.139,0.819,0.372,0.650,0.612,��,7.3,��
2021/04/16,22:50,0.629,0.930,0.586,1.140,0.818,0.370,0.649,0.610,��,6.3,��
2021/04/16,23:00,0.629,0.931,0.587,1.140,0.817,0.371,0.650,0.612,��,7.4,��
2021/04/16,23:10,0.629,0.931,0.586,1.139,0.817,0.370,0.651,0.611,��,6.2,��
2021/04/16,23:20,0.629,0.932,0.586,1.138,0.815,0.370,0.649,0.611,��,6.7,��
2021/04/16,23:30,0.630,0.932,0.587,1.140,0.816,0.372,0.650,0.612,��쐼,6.6,��
2021/04/16,23:40,0.630,0.932,0.586,1.139,0.815,0.371,0.649,0.610,��쐼,7.1,��
2021/04/16,23:50,0.629,0.931,0.586,1.138,0.817,0.370,0.650,0.610,��,7.4,��
